Flag for U.S.A. Weather past 2 weeks in Redlands, California, U.S.A.

Now
67 °F

Overcast.


Feels Like: 67 °F
Forecast: 60 / 84 °F
Wind: 3 mph from South

Location: Riverside / March Air Force Base

Current Time: Sep 19, 2014 at 6:50:45 AM

Latest Report: Sep 19, 2014 at 5:58 AM


Visibility: 10 mi

Pressure: 29.87 "Hg

Humidity: 82%

Dew point: 62 °F

Location of RedlandsLocation

Historic Weather in Redlands — Graph

°F

Redlands temperature yesterday

Maximum temperature yesterday: 86 °F (at 3:58 PM)
Minimum temperature yesterday: 66 °F (at 5:58 AM)
Average temperature yesterday: 74 °F

Past Weeks' High & Low Weather Summary

 TemperatureHumidityPressure
High106 °F (Sep 15, 1:58 PM)99% (Sep 4, 5:58 AM)29.98 "Hg (Sep 4, 5:58 AM)
Low59 °F (Sep 10, 4:58 AM)13% (Sep 13, 11:58 AM)29.68 "Hg (Sep 14, 3:58 PM)
Average81 °F44%29.81 "Hg
* Reported Sep 4 5:58 AM — Sep 19 5:58 AM, Redlands, Weather by CustomWeather, © 2014

Note: Actual official high and low records may vary slightly from our data, if they occured in-between our weather recording intervals... More about our weather records

Advertising

Redlands weather history for previous 24 hours

 ConditionsComfort  
Time TempWeatherWind HumidityBarometerVisibility
5:58 AM
Sep 19
67 °FOvercast.3 mph82%29.87 "Hg10 mi
4:58 AM68 °FOvercast.5 mph80%29.86 "Hg10 mi
3:58 AM67 °FOvercast.No wind79%29.86 "Hg10 mi
2:58 AM67 °FOvercast.7 mph80%29.86 "Hg10 mi
1:58 AM67 °FPassing clouds.No wind84%29.86 "Hg10 mi
12:58 AM66 °FClear.No wind87%29.86 "Hg10 mi
11:58 PM
Sep 18
66 °FClear.3 mph89%29.86 "Hg10 mi
10:58 PM67 °FClear.6 mph86%29.87 "Hg10 mi
9:58 PM68 °FClear.7 mph80%29.85 "Hg10 mi
8:58 PM70 °FClear.10 mph75%29.85 "Hg10 mi
7:58 PM73 °FClear.12 mph68%29.81 "Hg10 mi
6:58 PM76 °FSunny.17 mph57%29.80 "Hg10 mi
5:58 PM81 °FPassing clouds.14 mph50%29.79 "Hg10 mi
4:58 PM84 °FPassing clouds.13 mph45%29.79 "Hg10 mi
3:58 PM86 °FPassing clouds.12 mph39%29.79 "Hg10 mi
2:58 PM86 °FPassing clouds.16 mph39%29.80 "Hg10 mi
1:58 PM85 °FPassing clouds.12 mph39%29.82 "Hg10 mi
12:58 PM83 °FPassing clouds.10 mph42%29.84 "Hg10 mi
11:58 AM81 °FSunny.8 mph48%29.85 "Hg10 mi
10:58 AM77 °FSunny.2 mph58%29.87 "Hg10 mi
7:58 AM68 °FSunny.9 mph82%29.85 "Hg10 mi
6:58 AM66 °FClear.6 mph79%29.84 "Hg10 mi
Weather by CustomWeather, © 2014

See weather overviewHow to use our weather pages